Tracking 17154 objects as of 1-August-2015
HD Live streaming from Space Station

THORAD AGENA D DEB

Track THORAD AGENA D DEB now!
10-day predictions
THORAD AGENA D DEB is classified as:


NORAD ID: 4177
Int'l Code: 1969-082AV
Perigee: 857.1 km
Apogee: 1,029.6 km
Inclination: 70.1 °
Period: 103.8 minutes
Semi major axis: 7314 km
RCS: 0.0743 m2 (small)
Launch date: September 30, 1969
Source: United States (US)

Note: This is SATELLITE DEBRIS
Your satellite tracking list
Your tracking list is empty





NASA's NSSDC Master Catalog

Two Line Element Set (TLE):
1 04177U 69082AV  15212.12936982  .00000908  00000-0  76383-3 0  9992
2 04177 070.0720 313.6977 0117912 122.6424 238.6121 13.87830719304631

Source of the keplerian elements: AFSPC

N2YO: 263